SWR122 LSZH-RKSI

Flight info

Callsign SWR122
Flight time N/A
Altitude 35000
Route DEGES Z2 UMVEG DCT DIMLO DCT INVED DCT SOKRU DCT DINRO DCT UDROS UM859 RERVA/N0477F370 UM859 KARDE UL851 TBN UM11 REBLO M11 MATAL T916 LEYLA N161 GASBI/K0883F370 N161 ALZIS/K0893F390 N161 SARIN/K0889S1190 A368 FKG W188 LIKMI W270 BIVOR/K0893S1250 W270 DKO W69 HUR B339 LADIX W34 VAPGU W100 MUDOT DCT UNSEK A326 DONVO G597 AGAVO/N0477F410 Y644 REBIT REBIT2H
Aircraft B772/H-SDE2E3FGHIJ5LORVWXY/LB1D1

Departure

Time 2026-05-01 07:37
Airport Zürich Airport (LSZH)

Arrival

Time N/A
Airport Incheon International Airport (RKSI)
Time Latitude Longitude Altitude Speed Heading
2026-05-01 07:23 47.46222 8.55192 1409 ft 1 kts 184°
2026-05-01 07:23 47.46231 8.55193 1402 ft 1 kts 183°
2026-05-01 07:24 47.46236 8.55194 1403 ft 1 kts 183°
2026-05-01 07:24 47.46240 8.55194 1408 ft 1 kts 183°
2026-05-01 07:24 47.46248 8.55194 1408 ft 1 kts 193°
2026-05-01 07:24 47.46259 8.55199 1406 ft 2 kts 219°
2026-05-01 07:25 47.46268 8.55212 1408 ft 2 kts 233°
2026-05-01 07:25 47.46275 8.55227 1408 ft 2 kts 263°
2026-05-01 07:25 47.46276 8.55234 1408 ft 0 kts 270°
2026-05-01 07:29 47.46276 8.55225 1405 ft 7 kts 270°
2026-05-01 07:29 47.46281 8.55132 1406 ft 8 kts 276°
2026-05-01 07:29 47.46287 8.55046 1395 ft 8 kts 276°
2026-05-01 07:30 47.46293 8.54960 1401 ft 8 kts 276°
2026-05-01 07:30 47.46299 8.54875 1399 ft 8 kts 276°
2026-05-01 07:30 47.46306 8.54788 1396 ft 8 kts 278°
2026-05-01 07:30 47.46341 8.54722 1386 ft 8 kts 328°
2026-05-01 07:31 47.46408 8.54672 1386 ft 16 kts 334°
2026-05-01 07:31 47.46731 8.54456 1385 ft 19 kts 337°
2026-05-01 07:32 47.46974 8.54299 1387 ft 19 kts 335°
2026-05-01 07:32 47.47094 8.54218 1386 ft 19 kts 335°
2026-05-01 07:33 47.47323 8.54060 1398 ft 15 kts 335°
2026-05-01 07:33 47.47415 8.53997 1401 ft 12 kts 335°
2026-05-01 07:33 47.47553 8.53898 1403 ft 9 kts 334°
2026-05-01 07:34 47.47601 8.53847 1408 ft 9 kts 302°
2026-05-01 07:34 47.47601 8.53737 1412 ft 5 kts 252°
2026-05-01 07:34 47.47584 8.53682 1407 ft 7 kts 240°
2026-05-01 07:35 47.47551 8.53633 1409 ft 5 kts 204°
2026-05-01 07:35 47.47518 8.53637 1406 ft 5 kts 165°
2026-05-01 07:35 47.47483 8.53656 1405 ft 4 kts 157°
2026-05-01 07:35 47.47481 8.53658 1409 ft 0 kts 156°
2026-05-01 07:36 47.47474 8.53663 1404 ft 2 kts 156°
2026-05-01 07:36 47.47374 8.53730 1404 ft 43 kts 155°
2026-05-01 07:36 47.46897 8.54060 1384 ft 107 kts 155°
2026-05-01 07:36 47.46051 8.54645 1401 ft 161 kts 154°
2026-05-01 07:37 47.43769 8.56192 2385 ft 182 kts 148°
2026-05-01 07:37 47.42903 8.57468 3129 ft 174 kts 109°
2026-05-01 07:37 47.42780 8.59245 3528 ft 179 kts 79°
2026-05-01 07:38 47.43296 8.60916 3667 ft 184 kts 45°
2026-05-01 07:38 47.44263 8.62170 3868 ft 185 kts 49°
2026-05-01 07:38 47.46071 8.64922 4229 ft 190 kts 67°
2026-05-01 07:39 47.46276 8.66813 4391 ft 188 kts 91°
2026-05-01 07:39 47.46313 8.68799 4521 ft 200 kts 89°
2026-05-01 07:39 47.46433 8.73178 4782 ft 229 kts 89°
2026-05-01 07:40 47.46501 8.75634 4898 ft 247 kts 88°
2026-05-01 07:40 47.46557 8.78258 5125 ft 262 kts 89°
2026-05-01 07:40 47.46641 8.80994 5571 ft 269 kts 88°
2026-05-01 07:40 47.46632 8.83758 6070 ft 271 kts 101°
2026-05-01 07:41 47.46182 8.86415 6572 ft 271 kts 104°
2026-05-01 07:41 47.45756 8.89028 7117 ft 273 kts 103°
2026-05-01 07:41 47.44948 8.94532 8313 ft 276 kts 102°
2026-05-01 07:42 47.44566 8.97215 8884 ft 277 kts 101°
2026-05-01 07:42 47.44173 9.00013 9468 ft 279 kts 101°
2026-05-01 07:42 47.43775 9.02828 10059 ft 281 kts 101°
2026-05-01 07:42 47.43372 9.05650 10590 ft 284 kts 101°
2026-05-01 07:43 47.42952 9.08595 10744 ft 303 kts 101°
2026-05-01 07:43 47.42509 9.11733 10909 ft 322 kts 101°
2026-05-01 07:43 47.41535 9.18607 11313 ft 355 kts 98°
2026-05-01 07:44 47.42046 9.25884 11821 ft 368 kts 75°
2026-05-01 07:44 47.43268 9.33202 13507 ft 370 kts 76°
2026-05-01 07:45 47.43839 9.36918 14293 ft 373 kts 77°
2026-05-01 07:45 47.44405 9.40686 14960 ft 377 kts 77°
2026-05-01 07:45 47.44972 9.44483 15628 ft 380 kts 77°
2026-05-01 07:45 47.45545 9.48316 16332 ft 383 kts 77°
2026-05-01 07:46 47.46120 9.52166 16989 ft 385 kts 77°
2026-05-01 07:46 47.46692 9.56062 17629 ft 389 kts 78°
2026-05-01 07:46 47.47110 9.64049 18860 ft 395 kts 90°
2026-05-01 07:47 47.46920 9.68167 19447 ft 398 kts 92°
2026-05-01 07:47 47.46691 9.72197 19893 ft 402 kts 93°
2026-05-01 07:47 47.46439 9.76347 20320 ft 407 kts 93°
2026-05-01 07:47 47.46189 9.80540 20781 ft 410 kts 93°
2026-05-01 07:48 47.45692 9.89032 21744 ft 417 kts 92°
2026-05-01 07:48 47.45451 9.93265 22168 ft 421 kts 92°
2026-05-01 07:48 47.45204 9.97606 22614 ft 425 kts 92°
2026-05-01 07:49 47.44953 10.01982 23067 ft 428 kts 92°
2026-05-01 07:49 47.44443 10.10784 24106 ft 431 kts 92°
2026-05-01 07:49 47.44182 10.15220 24499 ft 434 kts 92°
2026-05-01 07:50 47.43867 10.19684 24859 ft 438 kts 95°
2026-05-01 07:50 47.42673 10.28578 25619 ft 445 kts 98°
2026-05-01 07:50 47.42037 10.33064 25967 ft 447 kts 98°
2026-05-01 07:51 47.41412 10.37570 26328 ft 449 kts 98°
2026-05-01 07:51 47.40798 10.42100 26684 ft 451 kts 98°
2026-05-01 07:51 47.40181 10.46654 27098 ft 453 kts 97°
2026-05-01 07:52 47.38930 10.55784 27872 ft 456 kts 97°
2026-05-01 07:52 47.38313 10.60333 28143 ft 459 kts 97°
2026-05-01 07:52 47.37686 10.64978 28308 ft 464 kts 97°
2026-05-01 07:53 47.36374 10.74299 29081 ft 464 kts 98°
2026-05-01 07:53 47.35711 10.78968 29305 ft 467 kts 97°
2026-05-01 07:53 47.35046 10.83665 29509 ft 469 kts 97°
2026-05-01 07:53 47.34381 10.88376 29878 ft 469 kts 97°
2026-05-01 07:54 47.33050 10.97798 30431 ft 470 kts 97°
2026-05-01 07:55 47.31038 11.11908 31184 ft 468 kts 97°
2026-05-01 07:55 47.29695 11.21250 31682 ft 466 kts 97°
2026-05-01 07:56 47.27678 11.35186 32500 ft 463 kts 96°
2026-05-01 07:56 47.26331 11.44448 33080 ft 461 kts 96°
2026-05-01 07:57 47.25656 11.49062 33317 ft 461 kts 96°
2026-05-01 07:57 47.24559 11.58321 33816 ft 457 kts 93°
2026-05-01 07:58 47.23599 11.67519 34357 ft 456 kts 92°
2026-05-01 07:58 47.22617 11.76698 34826 ft 454 kts 93°
2026-05-01 07:59 47.21619 11.85894 35062 ft 455 kts 93°
2026-05-01 07:59 47.20637 11.95108 35309 ft 456 kts 92°
2026-05-01 08:00 47.18874 12.13468 35354 ft 453 kts 92°
2026-05-01 08:01 47.17066 12.31820 35385 ft 453 kts 92°
2026-05-01 08:02 47.15683 12.45555 35405 ft 452 kts 92°
2026-05-01 08:03 47.14292 12.59208 35361 ft 452 kts 92°
2026-05-01 08:03 47.12881 12.72916 35349 ft 453 kts 92°
2026-05-01 08:04 47.10972 12.91148 35352 ft 451 kts 92°
2026-05-01 08:05 47.09531 13.04758 35352 ft 450 kts 92°
2026-05-01 08:06 47.08070 13.18371 35357 ft 449 kts 92°
2026-05-01 08:07 47.06100 13.36530 35381 ft 450 kts 92°
2026-05-01 08:08 47.04602 13.50126 35383 ft 450 kts 92°
2026-05-01 08:09 47.02581 13.68218 35402 ft 451 kts 92°
2026-05-01 08:09 47.01558 13.77312 35395 ft 451 kts 92°
2026-05-01 08:10 46.99492 13.95388 35387 ft 448 kts 93°
2026-05-01 08:11 46.97420 14.13305 35410 ft 447 kts 93°
2026-05-01 08:12 46.95841 14.26783 35426 ft 446 kts 93°
2026-05-01 08:13 46.95107 14.32997 35425 ft 446 kts 93°
2026-05-01 08:13 46.94624 14.37067 35412 ft 446 kts 93°
2026-05-01 08:14 46.93559 14.46015 35452 ft 446 kts 93°
2026-05-01 08:14 46.92484 14.54958 35415 ft 446 kts 93°
2026-05-01 08:15 46.90875 14.68270 35415 ft 444 kts 93°
2026-05-01 08:16 46.89788 14.77158 35400 ft 443 kts 93°
2026-05-01 08:16 46.88697 14.86036 35446 ft 443 kts 93°
2026-05-01 08:17 46.87600 14.94910 35406 ft 443 kts 93°
2026-05-01 08:17 46.86506 15.03705 35402 ft 442 kts 93°
2026-05-01 08:18 46.85395 15.12569 35400 ft 442 kts 93°
2026-05-01 08:19 46.83161 15.30221 35395 ft 443 kts 94°
2026-05-01 08:19 46.82031 15.39051 35403 ft 441 kts 94°
2026-05-01 08:20 46.80900 15.47841 35390 ft 440 kts 94°
2026-05-01 08:20 46.79765 15.56612 35391 ft 439 kts 94°